Year,Month,Day,Hour,Minute,Value (Times are PST for temperature in C)
2013,12,17,00,00,1.90
2013,12,17,00,01,1.90
2013,12,17,00,02,1.90
2013,12,17,00,03,1.90
2013,12,17,00,04,1.90
2013,12,17,00,05,1.90
2013,12,17,00,06,1.90
2013,12,17,00,07,1.80
2013,12,17,00,08,1.80
2013,12,17,00,09,1.80
2013,12,17,00,10,1.80
2013,12,17,00,11,1.80
2013,12,17,00,12,1.80
2013,12,17,00,13,1.80
2013,12,17,00,14,1.80
2013,12,17,00,15,1.80
2013,12,17,00,16,1.80
2013,12,17,00,17,1.80
2013,12,17,00,18,1.80
2013,12,17,00,19,1.80
2013,12,17,00,20,1.70
2013,12,17,00,21,1.70
2013,12,17,00,22,1.70
2013,12,17,00,23,1.70
2013,12,17,00,24,1.70
2013,12,17,00,25,1.70
2013,12,17,00,26,1.70
2013,12,17,00,27,1.70
2013,12,17,00,28,1.70
2013,12,17,00,29,1.70
2013,12,17,00,30,1.70
2013,12,17,00,31,1.70
2013,12,17,00,32,1.70
2013,12,17,00,33,1.70
2013,12,17,00,34,1.70
2013,12,17,00,35,1.70
2013,12,17,00,36,1.60
2013,12,17,00,37,1.60
2013,12,17,00,38,1.60
2013,12,17,00,39,1.60
2013,12,17,00,40,1.60
2013,12,17,00,41,1.50
2013,12,17,00,42,1.50
2013,12,17,00,43,1.50
2013,12,17,00,44,1.50
2013,12,17,00,45,1.50
2013,12,17,00,46,1.50
2013,12,17,00,47,1.50
2013,12,17,00,48,1.50
2013,12,17,00,49,1.50
2013,12,17,00,50,1.50
2013,12,17,00,51,1.50
2013,12,17,00,52,1.50
2013,12,17,00,53,1.50
2013,12,17,00,54,1.50
2013,12,17,00,55,1.50
2013,12,17,00,56,1.50
2013,12,17,00,57,1.50
2013,12,17,00,58,1.50
2013,12,17,00,59,1.50
2013,12,17,01,00,1.50
2013,12,17,01,01,1.50
2013,12,17,01,02,1.50
2013,12,17,01,03,1.50
2013,12,17,01,04,1.50
2013,12,17,01,05,1.50
2013,12,17,01,06,1.50
2013,12,17,01,07,1.50
2013,12,17,01,08,1.50
2013,12,17,01,09,1.40
2013,12,17,01,10,1.40
2013,12,17,01,11,1.30
2013,12,17,01,12,1.30
2013,12,17,01,13,1.30
2013,12,17,01,14,1.30
2013,12,17,01,15,1.20
2013,12,17,01,16,1.20
2013,12,17,01,17,1.20
2013,12,17,01,18,1.20
2013,12,17,01,19,1.20
2013,12,17,01,20,1.10
2013,12,17,01,21,1.10
2013,12,17,01,22,1.10
2013,12,17,01,23,1.10
2013,12,17,01,24,1.10
2013,12,17,01,25,1.10
2013,12,17,01,26,1.10
2013,12,17,01,27,1.10
2013,12,17,01,28,1.10
2013,12,17,01,29,1.10
2013,12,17,01,30,1.10
2013,12,17,01,31,1.00
2013,12,17,01,32,1.00
2013,12,17,01,33,1.00
2013,12,17,01,34,1.00
2013,12,17,01,35,0.90
2013,12,17,01,36,0.90
2013,12,17,01,37,0.90
2013,12,17,01,38,0.90
2013,12,17,01,39,0.80
2013,12,17,01,40,0.80
2013,12,17,01,41,0.80
2013,12,17,01,42,0.80
2013,12,17,01,43,0.80
2013,12,17,01,44,0.80
2013,12,17,01,45,0.80
2013,12,17,01,46,0.80
2013,12,17,01,47,0.80
2013,12,17,01,48,0.80
2013,12,17,01,49,0.80
2013,12,17,01,50,0.80
2013,12,17,01,51,0.80
2013,12,17,01,52,0.80
2013,12,17,01,53,0.80
2013,12,17,01,54,0.80
2013,12,17,01,55,0.80
2013,12,17,01,56,0.80
2013,12,17,01,57,0.80
2013,12,17,01,58,0.80
2013,12,17,01,59,0.80
2013,12,17,02,00,0.80
2013,12,17,02,01,0.80
2013,12,17,02,02,0.80
2013,12,17,02,03,0.80
2013,12,17,02,04,0.80
2013,12,17,02,05,0.80
2013,12,17,02,06,0.70
2013,12,17,02,07,0.70
2013,12,17,02,08,0.70
2013,12,17,02,09,0.70
2013,12,17,02,10,0.70
2013,12,17,02,11,0.70
2013,12,17,02,12,0.70
2013,12,17,02,13,0.70
2013,12,17,02,14,0.70
2013,12,17,02,15,0.70
2013,12,17,02,16,0.70
2013,12,17,02,17,0.70
2013,12,17,02,18,0.70
2013,12,17,02,19,0.70
2013,12,17,02,20,0.70
2013,12,17,02,21,0.70
2013,12,17,02,22,0.70
2013,12,17,02,23,0.70
2013,12,17,02,24,0.70
2013,12,17,02,25,0.70
2013,12,17,02,26,0.70
2013,12,17,02,27,0.70
2013,12,17,02,28,0.80
2013,12,17,02,29,0.80
2013,12,17,02,30,0.80
2013,12,17,02,31,0.80
2013,12,17,02,32,0.80
2013,12,17,02,33,0.90
2013,12,17,02,34,0.90
2013,12,17,02,35,0.90
2013,12,17,02,36,0.90
2013,12,17,02,37,0.90
2013,12,17,02,38,0.90
2013,12,17,02,39,0.90
2013,12,17,02,40,0.90
2013,12,17,02,41,0.90
2013,12,17,02,42,0.90
2013,12,17,02,43,0.90
2013,12,17,02,44,0.90
2013,12,17,02,45,0.90
2013,12,17,02,46,0.90
2013,12,17,02,47,0.90
2013,12,17,02,48,0.90
2013,12,17,02,49,0.90
2013,12,17,02,50,0.90
2013,12,17,02,51,0.90
2013,12,17,02,52,0.90
2013,12,17,02,53,1.00
2013,12,17,02,54,1.00
2013,12,17,02,55,1.00
2013,12,17,02,56,1.00
2013,12,17,02,57,1.00
2013,12,17,02,58,1.00
2013,12,17,02,59,1.00
2013,12,17,03,00,1.00
2013,12,17,03,01,1.00
2013,12,17,03,02,1.00
2013,12,17,03,03,1.00
2013,12,17,03,04,1.00
2013,12,17,03,05,1.00
2013,12,17,03,06,1.00
2013,12,17,03,07,1.00
2013,12,17,03,08,1.00
2013,12,17,03,09,1.00
2013,12,17,03,10,1.00
2013,12,17,03,11,0.90
2013,12,17,03,12,0.90
2013,12,17,03,13,0.90
2013,12,17,03,14,0.90
2013,12,17,03,15,0.90
2013,12,17,03,16,0.90
2013,12,17,03,17,0.90
2013,12,17,03,18,0.90
2013,12,17,03,19,0.90
2013,12,17,03,20,0.90
2013,12,17,03,21,0.90
2013,12,17,03,22,0.90
2013,12,17,03,23,1.00
2013,12,17,03,24,1.00
2013,12,17,03,25,1.00
2013,12,17,03,26,1.00
2013,12,17,03,27,1.00
2013,12,17,03,28,1.10
2013,12,17,03,29,1.10
2013,12,17,03,30,1.10
2013,12,17,03,31,1.20
2013,12,17,03,32,1.20
2013,12,17,03,33,1.20
2013,12,17,03,34,1.30
2013,12,17,03,35,1.30
2013,12,17,03,36,1.30
2013,12,17,03,37,1.30
2013,12,17,03,38,1.30
2013,12,17,03,39,1.20
2013,12,17,03,40,1.20
2013,12,17,03,41,1.20
2013,12,17,03,42,1.20
2013,12,17,03,43,1.20
2013,12,17,03,44,1.20
2013,12,17,03,45,1.20
2013,12,17,03,46,1.20
2013,12,17,03,47,1.20
2013,12,17,03,48,1.20
2013,12,17,03,49,1.20
2013,12,17,03,50,1.20
2013,12,17,03,51,1.20
2013,12,17,03,52,1.20
2013,12,17,03,53,1.20
2013,12,17,03,54,1.20
2013,12,17,03,55,1.20
2013,12,17,03,56,1.20
2013,12,17,03,57,1.30
2013,12,17,03,58,1.30
2013,12,17,03,59,1.40
2013,12,17,04,00,1.50
2013,12,17,04,01,1.50
2013,12,17,04,02,1.60
2013,12,17,04,03,1.60
2013,12,17,04,04,1.70
2013,12,17,04,05,1.70
2013,12,17,04,06,1.70
2013,12,17,04,07,1.80
2013,12,17,04,08,1.80
2013,12,17,04,09,1.80
2013,12,17,04,10,1.80
2013,12,17,04,11,1.80
2013,12,17,04,12,1.80
2013,12,17,04,13,1.80
2013,12,17,04,14,1.80
2013,12,17,04,15,1.80
2013,12,17,04,16,1.80
2013,12,17,04,17,1.80
2013,12,17,04,18,1.90
2013,12,17,04,19,1.90
2013,12,17,04,20,1.90
2013,12,17,04,21,1.90
2013,12,17,04,22,1.90
2013,12,17,04,23,1.90
2013,12,17,04,24,1.90
2013,12,17,04,25,1.80
2013,12,17,04,26,1.80
2013,12,17,04,27,1.80
2013,12,17,04,28,1.90
2013,12,17,04,29,1.90
2013,12,17,04,30,1.90
2013,12,17,04,31,1.90
2013,12,17,04,32,1.90
2013,12,17,04,33,1.90
2013,12,17,04,34,1.90
2013,12,17,04,35,2.00
2013,12,17,04,36,2.00
2013,12,17,04,37,2.00
2013,12,17,04,38,2.00
2013,12,17,04,39,2.00
2013,12,17,04,40,2.00
2013,12,17,04,41,2.00
2013,12,17,04,42,2.00
2013,12,17,04,43,2.00
2013,12,17,04,44,2.00
2013,12,17,04,45,2.10
2013,12,17,04,46,2.10
2013,12,17,04,47,2.10
2013,12,17,04,48,2.10
2013,12,17,04,49,2.10
2013,12,17,04,50,2.10
2013,12,17,04,51,2.10
2013,12,17,04,52,2.10
2013,12,17,04,53,2.10
2013,12,17,04,54,2.10
2013,12,17,04,55,2.10
2013,12,17,04,56,2.20
2013,12,17,04,57,2.20
2013,12,17,04,58,2.20
2013,12,17,04,59,2.20
2013,12,17,05,00,2.20
2013,12,17,05,01,2.20
2013,12,17,05,02,2.20
2013,12,17,05,03,2.20
2013,12,17,05,04,2.20
2013,12,17,05,05,2.20
2013,12,17,05,06,2.20
2013,12,17,05,07,2.20
2013,12,17,05,08,2.20
2013,12,17,05,09,2.20
2013,12,17,05,10,2.20
2013,12,17,05,11,2.20
2013,12,17,05,12,2.20
2013,12,17,05,13,2.20
2013,12,17,05,14,2.20
2013,12,17,05,15,2.20
2013,12,17,05,16,2.20
2013,12,17,05,17,2.20
2013,12,17,05,18,2.20
2013,12,17,05,19,2.20
2013,12,17,05,20,2.20
2013,12,17,05,21,2.20
2013,12,17,05,22,2.20
2013,12,17,05,23,2.20
2013,12,17,05,24,2.20
2013,12,17,05,25,2.20
2013,12,17,05,26,2.20
2013,12,17,05,27,2.20
2013,12,17,05,28,2.20
2013,12,17,05,29,2.20
2013,12,17,05,30,2.20
2013,12,17,05,31,2.20
2013,12,17,05,32,2.20
2013,12,17,05,33,2.20
2013,12,17,05,34,2.20
2013,12,17,05,35,2.20
2013,12,17,05,36,2.20
2013,12,17,05,37,2.20
2013,12,17,05,38,2.20
2013,12,17,05,39,2.20
2013,12,17,05,40,2.20
2013,12,17,05,41,2.20
2013,12,17,05,42,2.30
2013,12,17,05,43,2.30
2013,12,17,05,44,2.30
2013,12,17,05,45,2.30
2013,12,17,05,46,2.30
2013,12,17,05,47,2.30
2013,12,17,05,48,2.30
2013,12,17,05,49,2.40
2013,12,17,05,50,2.40
2013,12,17,05,51,2.40
2013,12,17,05,52,2.50
2013,12,17,05,53,2.50
2013,12,17,05,54,2.60
2013,12,17,05,55,2.60
2013,12,17,05,56,2.60
2013,12,17,05,57,2.70
2013,12,17,05,58,2.70
2013,12,17,05,59,2.70
2013,12,17,06,00,2.70
2013,12,17,06,01,2.70
2013,12,17,06,02,2.70
2013,12,17,06,03,2.70
2013,12,17,06,04,2.70
2013,12,17,06,05,2.70
2013,12,17,06,06,2.70
2013,12,17,06,07,2.70
2013,12,17,06,08,2.70
2013,12,17,06,09,2.70
2013,12,17,06,10,2.70
2013,12,17,06,11,2.70
2013,12,17,06,12,2.70
2013,12,17,06,13,2.70
2013,12,17,06,14,2.70
2013,12,17,06,15,2.70
2013,12,17,06,16,2.70
2013,12,17,06,17,2.70
2013,12,17,06,18,2.70
2013,12,17,06,19,2.70
2013,12,17,06,20,2.70
2013,12,17,06,21,2.80
2013,12,17,06,22,2.80
2013,12,17,06,23,2.80
2013,12,17,06,24,2.80
2013,12,17,06,25,2.80
2013,12,17,06,26,2.80
2013,12,17,06,27,2.80
2013,12,17,06,28,2.80
2013,12,17,06,29,2.80
2013,12,17,06,30,2.80
2013,12,17,06,31,2.80
2013,12,17,06,32,2.90
2013,12,17,06,33,2.90
2013,12,17,06,34,2.90
2013,12,17,06,35,2.90
2013,12,17,06,36,2.90
2013,12,17,06,37,2.90
2013,12,17,06,38,2.90
2013,12,17,06,39,2.90
2013,12,17,06,40,2.90
2013,12,17,06,41,2.90
2013,12,17,06,42,2.90
2013,12,17,06,43,2.90
2013,12,17,06,44,2.90
2013,12,17,06,45,2.90
2013,12,17,06,46,2.90
2013,12,17,06,47,2.90
2013,12,17,06,48,3.10
2013,12,17,06,49,3.10
2013,12,17,06,50,3.10
2013,12,17,06,51,3.20
2013,12,17,06,52,3.30
2013,12,17,06,53,3.40
2013,12,17,06,54,3.50
2013,12,17,06,55,3.60
2013,12,17,06,56,3.60
2013,12,17,06,57,3.70
2013,12,17,06,58,3.80
2013,12,17,06,59,3.80
2013,12,17,07,00,3.80
2013,12,17,07,01,3.80
2013,12,17,07,02,3.80
2013,12,17,07,03,3.80
2013,12,17,07,04,3.80
2013,12,17,07,05,3.80
2013,12,17,07,06,3.80
2013,12,17,07,07,3.90
2013,12,17,07,08,3.90
2013,12,17,07,09,3.90
2013,12,17,07,10,3.90
2013,12,17,07,11,3.90
2013,12,17,07,12,3.90
2013,12,17,07,13,3.90
2013,12,17,07,14,3.90
2013,12,17,07,15,3.90
2013,12,17,07,16,3.90
2013,12,17,07,17,3.90
2013,12,17,07,18,3.90
2013,12,17,07,19,4.00
2013,12,17,07,20,4.00
2013,12,17,07,21,4.00
2013,12,17,07,22,4.00
2013,12,17,07,23,4.10
2013,12,17,07,24,4.10
2013,12,17,07,25,4.20
2013,12,17,07,26,4.20
2013,12,17,07,27,4.20
2013,12,17,07,28,4.20
2013,12,17,07,29,4.30
2013,12,17,07,30,4.30
2013,12,17,07,31,4.30
2013,12,17,07,32,4.30
2013,12,17,07,33,4.30
2013,12,17,07,34,4.30
2013,12,17,07,35,4.30
2013,12,17,07,36,4.30
2013,12,17,07,37,4.40
2013,12,17,07,38,4.40
2013,12,17,07,39,4.40
2013,12,17,07,40,4.40
2013,12,17,07,41,4.50
2013,12,17,07,42,4.50
2013,12,17,07,43,4.50
2013,12,17,07,44,4.50
2013,12,17,07,45,4.50
2013,12,17,07,46,4.50
2013,12,17,07,47,4.50
2013,12,17,07,48,4.60
2013,12,17,07,49,4.60
2013,12,17,07,50,4.60
2013,12,17,07,51,4.60
2013,12,17,07,52,4.60
2013,12,17,07,53,4.60
2013,12,17,07,54,4.60
2013,12,17,07,55,4.60
2013,12,17,07,56,4.60
2013,12,17,07,57,4.60
2013,12,17,07,58,4.60
2013,12,17,07,59,4.60
2013,12,17,08,00,4.70
2013,12,17,08,01,4.70
2013,12,17,08,02,4.70
2013,12,17,08,03,4.70
2013,12,17,08,04,4.70
2013,12,17,08,05,4.70
2013,12,17,08,06,4.70
2013,12,17,08,07,4.70
2013,12,17,08,08,4.70
2013,12,17,08,09,4.80
2013,12,17,08,10,4.80
2013,12,17,08,11,4.80
2013,12,17,08,12,4.80
2013,12,17,08,13,4.80
2013,12,17,08,14,4.80
2013,12,17,08,15,4.80
2013,12,17,08,16,4.80
2013,12,17,08,17,4.80
2013,12,17,08,18,4.80
2013,12,17,08,19,4.80
2013,12,17,08,20,4.80
2013,12,17,08,21,4.80
2013,12,17,08,22,4.80
2013,12,17,08,23,4.80
2013,12,17,08,24,4.80
2013,12,17,08,25,4.90
2013,12,17,08,26,4.90
2013,12,17,08,27,4.90
2013,12,17,08,28,4.90
2013,12,17,08,29,4.90
2013,12,17,08,30,4.90
2013,12,17,08,31,4.90
2013,12,17,08,32,4.90
2013,12,17,08,33,4.90
2013,12,17,08,34,4.90
2013,12,17,08,35,4.90
2013,12,17,08,36,4.90
2013,12,17,08,37,4.90
2013,12,17,08,38,4.90
2013,12,17,08,39,4.90
2013,12,17,08,40,4.90
2013,12,17,08,41,4.90
2013,12,17,08,42,4.90
2013,12,17,08,43,4.90
2013,12,17,08,44,4.90
2013,12,17,08,45,4.90
2013,12,17,08,46,4.90
2013,12,17,08,47,4.90
2013,12,17,08,48,4.90
2013,12,17,08,49,4.90
2013,12,17,08,50,4.90
2013,12,17,08,51,4.90
2013,12,17,08,52,4.90
2013,12,17,08,53,4.80
2013,12,17,08,54,4.80
2013,12,17,08,55,4.80
2013,12,17,08,56,4.80
2013,12,17,08,57,4.70
2013,12,17,08,58,4.70
2013,12,17,08,59,4.70
2013,12,17,09,00,4.70
2013,12,17,09,01,4.70
2013,12,17,09,02,4.70
2013,12,17,09,03,4.70
2013,12,17,09,04,4.70
2013,12,17,09,05,4.70
2013,12,17,09,06,4.70
2013,12,17,09,07,4.70
2013,12,17,09,08,4.70
2013,12,17,09,09,4.70
2013,12,17,09,10,4.70
2013,12,17,09,11,4.70
2013,12,17,09,12,4.70
2013,12,17,09,13,4.70
2013,12,17,09,14,4.70
2013,12,17,09,15,4.70
2013,12,17,09,16,4.70
2013,12,17,09,17,4.70
2013,12,17,09,18,4.70
2013,12,17,09,19,4.70
2013,12,17,09,20,4.70
2013,12,17,09,21,4.70
2013,12,17,09,22,4.70
2013,12,17,09,23,4.80
2013,12,17,09,24,4.80
2013,12,17,09,25,4.80
2013,12,17,09,26,4.80
2013,12,17,09,27,4.80
2013,12,17,09,28,4.80
2013,12,17,09,29,4.80
2013,12,17,09,30,4.80
2013,12,17,09,31,4.80
2013,12,17,09,32,4.80
2013,12,17,09,33,4.80
2013,12,17,09,34,4.90
2013,12,17,09,35,4.90
2013,12,17,09,36,4.90
2013,12,17,09,37,4.90
2013,12,17,09,38,4.90
2013,12,17,09,39,4.90
2013,12,17,09,40,4.90
2013,12,17,09,41,4.90
2013,12,17,09,42,4.90
2013,12,17,09,43,4.90
2013,12,17,09,44,4.90
2013,12,17,09,45,4.90
2013,12,17,09,46,4.90
2013,12,17,09,47,4.90
2013,12,17,09,48,4.90
2013,12,17,09,49,4.90
2013,12,17,09,50,4.90
2013,12,17,09,51,4.90
2013,12,17,09,52,4.90
2013,12,17,09,53,4.90
2013,12,17,09,54,4.90
2013,12,17,09,55,4.90
2013,12,17,09,56,4.90
2013,12,17,09,57,4.90
2013,12,17,09,58,4.90
2013,12,17,09,59,4.90
2013,12,17,10,00,4.90
2013,12,17,10,01,4.90
2013,12,17,10,02,4.90
2013,12,17,10,03,5.00
2013,12,17,10,04,5.10
2013,12,17,10,05,5.10
2013,12,17,10,06,5.10
2013,12,17,10,07,5.10
2013,12,17,10,08,5.10
2013,12,17,10,09,5.20
2013,12,17,10,10,5.20
2013,12,17,10,11,5.30
2013,12,17,10,12,5.30
2013,12,17,10,13,5.30
2013,12,17,10,14,5.30
2013,12,17,10,15,5.30
2013,12,17,10,16,5.30
2013,12,17,10,17,5.40
2013,12,17,10,18,5.40
2013,12,17,10,19,5.40
2013,12,17,10,20,5.40
2013,12,17,10,21,5.40
2013,12,17,10,22,5.50
2013,12,17,10,23,5.50
2013,12,17,10,24,5.50
2013,12,17,10,25,5.50
2013,12,17,10,26,5.50
2013,12,17,10,27,5.50
2013,12,17,10,28,5.50
2013,12,17,10,29,5.50
2013,12,17,10,30,5.50
2013,12,17,10,31,5.50
2013,12,17,10,32,5.50
2013,12,17,10,33,5.50
2013,12,17,10,34,5.40
2013,12,17,10,35,5.50
2013,12,17,10,36,5.50
2013,12,17,10,37,5.50
2013,12,17,10,38,5.50
2013,12,17,10,39,5.50
2013,12,17,10,40,5.50
2013,12,17,10,41,5.50
2013,12,17,10,42,5.50
2013,12,17,10,43,5.50
2013,12,17,10,44,5.50
2013,12,17,10,45,5.50
2013,12,17,10,46,5.50
2013,12,17,10,47,5.50
2013,12,17,10,48,5.50
2013,12,17,10,49,5.40
2013,12,17,10,50,5.40
2013,12,17,10,51,5.40
2013,12,17,10,52,5.40
2013,12,17,10,53,5.40
2013,12,17,10,54,5.40
2013,12,17,10,55,5.40
2013,12,17,10,56,5.40
2013,12,17,10,57,5.50
2013,12,17,10,58,5.50
2013,12,17,10,59,5.50
2013,12,17,11,00,5.50
2013,12,17,11,01,5.50
2013,12,17,11,02,5.50
2013,12,17,11,03,5.50
2013,12,17,11,04,5.50
2013,12,17,11,05,5.50
2013,12,17,11,06,5.50
2013,12,17,11,07,5.50
2013,12,17,11,08,5.50
2013,12,17,11,09,5.50
2013,12,17,11,10,5.50
2013,12,17,11,11,5.50
2013,12,17,11,12,5.40
2013,12,17,11,13,5.40
2013,12,17,11,14,5.40
2013,12,17,11,15,5.40
2013,12,17,11,16,5.40
2013,12,17,11,17,5.50
2013,12,17,11,18,5.50
2013,12,17,11,19,5.50
2013,12,17,11,20,5.50
2013,12,17,11,21,5.50
2013,12,17,11,22,5.50
2013,12,17,11,23,5.50
2013,12,17,11,24,5.50
2013,12,17,11,25,5.50
2013,12,17,11,26,5.50
2013,12,17,11,27,5.60
2013,12,17,11,28,5.60
2013,12,17,11,29,5.60
2013,12,17,11,30,5.60
2013,12,17,11,31,5.60
2013,12,17,11,32,5.60
2013,12,17,11,33,5.60
2013,12,17,11,34,5.60
2013,12,17,11,35,5.60
2013,12,17,11,36,5.60
2013,12,17,11,37,5.60
2013,12,17,11,38,5.60
2013,12,17,11,39,5.60
2013,12,17,11,40,5.60
2013,12,17,11,41,5.60
2013,12,17,11,42,5.60
2013,12,17,11,43,5.60
2013,12,17,11,44,5.60
2013,12,17,11,45,5.60
2013,12,17,11,46,5.60
2013,12,17,11,47,5.50
2013,12,17,11,48,5.50
2013,12,17,11,49,5.50
2013,12,17,11,50,5.50
2013,12,17,11,51,5.50
2013,12,17,11,52,5.50
2013,12,17,11,53,5.50
2013,12,17,11,54,5.50
2013,12,17,11,55,5.50
2013,12,17,11,56,5.60
2013,12,17,11,57,5.60
2013,12,17,11,58,5.60
2013,12,17,11,59,5.60
2013,12,17,12,00,5.70
2013,12,17,12,01,5.70
2013,12,17,12,02,5.70
2013,12,17,12,03,5.70
2013,12,17,12,04,5.70
2013,12,17,12,05,5.70
2013,12,17,12,06,5.70
2013,12,17,12,07,5.70
2013,12,17,12,08,5.60
2013,12,17,12,09,5.60
2013,12,17,12,10,5.60
2013,12,17,12,11,5.70
2013,12,17,12,12,5.70
2013,12,17,12,13,5.70
2013,12,17,12,14,5.70
2013,12,17,12,15,5.70
2013,12,17,12,16,5.70
2013,12,17,12,17,5.70
2013,12,17,12,18,5.80
2013,12,17,12,19,5.80
2013,12,17,12,20,5.80
2013,12,17,12,21,5.80
2013,12,17,12,22,5.80
2013,12,17,12,23,5.80
2013,12,17,12,24,5.80
2013,12,17,12,25,5.80
2013,12,17,12,26,5.80
2013,12,17,12,27,5.80
2013,12,17,12,28,5.90
2013,12,17,12,29,5.90
2013,12,17,12,30,5.90
2013,12,17,12,31,5.90
2013,12,17,12,32,5.90
2013,12,17,12,33,6.00
2013,12,17,12,34,6.00
2013,12,17,12,35,6.00
2013,12,17,12,36,5.90
2013,12,17,12,37,5.90
2013,12,17,12,38,6.00
2013,12,17,12,39,6.00
2013,12,17,12,40,6.00
2013,12,17,12,41,6.00
2013,12,17,12,42,6.00
2013,12,17,12,43,6.00
2013,12,17,12,44,5.90
2013,12,17,12,45,5.90
2013,12,17,12,46,5.90
2013,12,17,12,47,6.00
2013,12,17,12,48,6.00
2013,12,17,12,49,5.90
2013,12,17,12,50,6.00
2013,12,17,12,51,6.00
2013,12,17,12,52,6.00
2013,12,17,12,53,6.00
2013,12,17,12,54,5.90
2013,12,17,12,55,5.90
2013,12,17,12,56,5.90
2013,12,17,12,57,5.90
2013,12,17,12,58,5.90
2013,12,17,12,59,5.90
2013,12,17,13,00,5.90
2013,12,17,13,01,5.90
2013,12,17,13,02,5.90
2013,12,17,13,03,5.90
2013,12,17,13,04,5.90
2013,12,17,13,05,6.00
2013,12,17,13,06,6.00
2013,12,17,13,07,6.00
2013,12,17,13,08,6.00
2013,12,17,13,09,6.00
2013,12,17,13,10,6.10
2013,12,17,13,11,6.10
2013,12,17,13,12,6.10
2013,12,17,13,13,6.10
2013,12,17,13,14,6.20
2013,12,17,13,15,6.20
2013,12,17,13,16,6.20
2013,12,17,13,17,6.20
2013,12,17,13,18,6.20
2013,12,17,13,19,6.20
2013,12,17,13,20,6.20
2013,12,17,13,21,6.30
2013,12,17,13,22,6.30
2013,12,17,13,23,6.20
2013,12,17,13,24,6.20
2013,12,17,13,25,6.30
2013,12,17,13,26,6.20
2013,12,17,13,27,6.30
2013,12,17,13,28,6.30
2013,12,17,13,29,6.20
2013,12,17,13,30,6.20
2013,12,17,13,31,6.20
2013,12,17,13,32,6.20
2013,12,17,13,33,6.10
2013,12,17,13,34,6.10
2013,12,17,13,35,6.20
2013,12,17,13,36,6.20
2013,12,17,13,37,6.20
2013,12,17,13,38,6.20
2013,12,17,13,39,6.20
2013,12,17,13,40,6.20
2013,12,17,13,41,6.20
2013,12,17,13,42,6.20
2013,12,17,13,43,6.20
2013,12,17,13,44,6.20
2013,12,17,13,45,6.20
2013,12,17,13,46,6.20
2013,12,17,13,47,6.20
2013,12,17,13,48,6.20
2013,12,17,13,49,6.20
2013,12,17,13,50,6.30
2013,12,17,13,51,6.30
2013,12,17,13,52,6.30
2013,12,17,13,53,6.30
2013,12,17,13,54,6.40
2013,12,17,13,55,6.40
2013,12,17,13,56,6.40
2013,12,17,13,57,6.40
2013,12,17,13,58,6.40
2013,12,17,13,59,6.40
2013,12,17,14,00,6.40
2013,12,17,14,01,6.40
2013,12,17,14,02,6.40
2013,12,17,14,03,6.30
2013,12,17,14,04,6.30
2013,12,17,14,05,6.30
2013,12,17,14,06,6.30
2013,12,17,14,07,6.30
2013,12,17,14,08,6.30
2013,12,17,14,09,6.40
2013,12,17,14,10,6.40
2013,12,17,14,11,6.40
2013,12,17,14,12,6.40
2013,12,17,14,13,6.40
2013,12,17,14,14,6.30
2013,12,17,14,15,6.30
2013,12,17,14,16,6.30
2013,12,17,14,17,6.30
2013,12,17,14,18,6.30
2013,12,17,14,19,6.30
2013,12,17,14,20,6.30
2013,12,17,14,21,6.30
2013,12,17,14,22,6.30
2013,12,17,14,23,6.30
2013,12,17,14,24,6.20
2013,12,17,14,25,6.20
2013,12,17,14,26,6.20
2013,12,17,14,27,6.20
2013,12,17,14,28,6.20
2013,12,17,14,29,6.20
2013,12,17,14,30,6.20
2013,12,17,14,31,6.20
2013,12,17,14,32,6.20
2013,12,17,14,33,6.20
2013,12,17,14,34,6.20
2013,12,17,14,35,6.20
2013,12,17,14,36,6.20
2013,12,17,14,37,6.20
2013,12,17,14,38,6.20
2013,12,17,14,39,6.20
2013,12,17,14,40,6.20
2013,12,17,14,41,6.30
2013,12,17,14,42,6.30
2013,12,17,14,43,6.30
2013,12,17,14,44,6.30
2013,12,17,14,45,6.30
2013,12,17,14,46,6.30
2013,12,17,14,47,6.30
2013,12,17,14,48,6.30
2013,12,17,14,49,6.30
2013,12,17,14,50,6.40
2013,12,17,14,51,6.40
2013,12,17,14,52,6.40
2013,12,17,14,53,6.40
2013,12,17,14,54,6.40
2013,12,17,14,55,6.40
2013,12,17,14,56,6.40
2013,12,17,14,57,6.40
2013,12,17,14,58,6.40
2013,12,17,14,59,6.40
2013,12,17,15,00,6.40
2013,12,17,15,01,6.40
2013,12,17,15,02,6.40
2013,12,17,15,03,6.40
2013,12,17,15,04,6.40
2013,12,17,15,05,6.40
2013,12,17,15,06,6.40
2013,12,17,15,07,6.40
2013,12,17,15,08,6.40
2013,12,17,15,09,6.40
2013,12,17,15,10,6.40
2013,12,17,15,11,6.50
2013,12,17,15,12,6.60
2013,12,17,15,13,6.60
2013,12,17,15,14,6.60
2013,12,17,15,15,6.60
2013,12,17,15,16,6.60
2013,12,17,15,17,6.60
2013,12,17,15,18,6.60
2013,12,17,15,19,6.60
2013,12,17,15,20,6.60
2013,12,17,15,21,6.60
2013,12,17,15,22,6.60
2013,12,17,15,23,6.60
2013,12,17,15,24,6.60
2013,12,17,15,25,6.60
2013,12,17,15,26,6.60
2013,12,17,15,27,6.60
2013,12,17,15,28,6.60
2013,12,17,15,29,6.60
2013,12,17,15,30,6.60
2013,12,17,15,31,6.60
2013,12,17,15,32,6.60
2013,12,17,15,33,6.60
2013,12,17,15,34,6.60
2013,12,17,15,35,6.60
2013,12,17,15,36,6.60
2013,12,17,15,37,6.60
2013,12,17,15,38,6.40
2013,12,17,15,39,6.40
2013,12,17,15,40,6.40
2013,12,17,15,41,6.40
2013,12,17,15,42,6.40
2013,12,17,15,43,6.40
2013,12,17,15,44,6.40
2013,12,17,15,45,6.40
2013,12,17,15,46,6.40
2013,12,17,15,47,6.40
2013,12,17,15,48,6.30
2013,12,17,15,49,6.30
2013,12,17,15,50,6.30
2013,12,17,15,51,6.30
2013,12,17,15,52,6.30
2013,12,17,15,53,6.20
2013,12,17,15,54,6.20
2013,12,17,15,55,6.20
2013,12,17,15,56,6.20
2013,12,17,15,57,6.20
2013,12,17,15,58,6.20
2013,12,17,15,59,6.20
2013,12,17,16,00,6.20
2013,12,17,16,01,6.20
2013,12,17,16,02,6.20
2013,12,17,16,03,6.20
2013,12,17,16,04,6.20
2013,12,17,16,05,6.20
2013,12,17,16,06,6.20
2013,12,17,16,07,6.20
2013,12,17,16,08,6.20
2013,12,17,16,09,6.20
2013,12,17,16,10,6.20
2013,12,17,16,11,6.20
2013,12,17,16,12,6.20
2013,12,17,16,13,6.20
2013,12,17,16,14,6.10
2013,12,17,16,15,6.10
2013,12,17,16,16,6.10
2013,12,17,16,17,6.10
2013,12,17,16,18,6.10
2013,12,17,16,19,6.10
2013,12,17,16,20,6.10
2013,12,17,16,21,6.20
2013,12,17,16,22,6.20
2013,12,17,16,23,6.20
2013,12,17,16,24,6.20
2013,12,17,16,25,6.20
2013,12,17,16,26,6.20
2013,12,17,16,27,6.20
2013,12,17,16,28,6.20
2013,12,17,16,29,6.20
2013,12,17,16,30,6.20
2013,12,17,16,31,6.20
2013,12,17,16,32,6.20
2013,12,17,16,33,6.20
2013,12,17,16,34,6.20
2013,12,17,16,35,6.20
2013,12,17,16,36,6.20
2013,12,17,16,37,6.20
2013,12,17,16,38,6.20
2013,12,17,16,39,6.20
2013,12,17,16,40,6.20
2013,12,17,16,41,6.20
2013,12,17,16,42,6.20
2013,12,17,16,43,6.20
2013,12,17,16,44,6.20
2013,12,17,16,45,6.20
2013,12,17,16,46,6.20
2013,12,17,16,47,6.20
2013,12,17,16,48,6.20
2013,12,17,16,49,6.20
2013,12,17,16,50,6.20
2013,12,17,16,51,6.20
2013,12,17,16,52,6.20
2013,12,17,16,53,6.20
2013,12,17,16,54,6.20
2013,12,17,16,55,6.20
2013,12,17,16,56,6.20
2013,12,17,16,57,6.20
2013,12,17,16,58,6.20
2013,12,17,16,59,6.20
2013,12,17,17,00,6.20
2013,12,17,17,01,6.20
2013,12,17,17,02,6.20
2013,12,17,17,03,6.20
2013,12,17,17,04,6.20
2013,12,17,17,05,6.20
2013,12,17,17,06,6.20
2013,12,17,17,07,6.20
2013,12,17,17,08,6.20
2013,12,17,17,09,6.20
2013,12,17,17,10,6.20
2013,12,17,17,11,6.20
2013,12,17,17,12,6.20
2013,12,17,17,13,6.20
2013,12,17,17,14,6.20
2013,12,17,17,15,6.20
2013,12,17,17,16,6.20
2013,12,17,17,17,6.20
2013,12,17,17,18,6.20
2013,12,17,17,19,6.20
2013,12,17,17,20,6.20
2013,12,17,17,21,6.20
2013,12,17,17,22,6.20
2013,12,17,17,23,6.20
2013,12,17,17,24,6.20
2013,12,17,17,25,6.20
2013,12,17,17,26,6.20
2013,12,17,17,27,6.20
2013,12,17,17,28,6.20
2013,12,17,17,29,6.20
2013,12,17,17,30,6.20
2013,12,17,17,31,6.20
2013,12,17,17,32,6.20
2013,12,17,17,33,6.20
2013,12,17,17,34,6.20
2013,12,17,17,35,6.20
2013,12,17,17,36,6.20
2013,12,17,17,37,6.20
2013,12,17,17,38,6.30
2013,12,17,17,39,6.30
2013,12,17,17,40,6.30
2013,12,17,17,41,6.30
2013,12,17,17,42,6.30
2013,12,17,17,43,6.30
2013,12,17,17,44,6.30
2013,12,17,17,45,6.30
2013,12,17,17,46,6.40
2013,12,17,17,47,6.40
2013,12,17,17,48,6.40
2013,12,17,17,49,6.40
2013,12,17,17,50,6.40
2013,12,17,17,51,6.40
2013,12,17,17,52,6.40
2013,12,17,17,53,6.40
2013,12,17,17,54,6.40
2013,12,17,17,55,6.40
2013,12,17,17,56,6.50
2013,12,17,17,57,6.60
2013,12,17,17,58,6.60
2013,12,17,17,59,6.60
2013,12,17,18,00,6.60
2013,12,17,18,01,6.60
2013,12,17,18,02,6.60
2013,12,17,18,03,6.60
2013,12,17,18,04,6.60
2013,12,17,18,05,6.60
2013,12,17,18,06,6.60